Location: ?????????
(41.2393°N, 22.9479°E)
Time: 21:16:20
(UTC+00:00)

SL-19 R/B - Pass Details

Date: 17 November 2025
Orbit: 795 x 1008 km, 99.6° (Epoch: 11 December)

Event Time Altitude Azimuth Distance (km) Brightness Sun altitude
Rises 16:23:33 0° 145° (SE) 3,316 7.1 -14.4°
Reaches altitude 10° 16:25:59 10° 138° (SE) 2,374 6.3 -14.8°
Maximum altitude 16:30:51 43° 68° (ENE) 1,115 4.4 -15.7°
Drops below altitude 10° 16:35:45 10° 359° (N) 2,380 6.4 -16.6°
Sets 16:38:11 0° 353° (N) 3,324 7.3 -17.1°
